[[{"header":{"parameterUnit":"m.s-1","parameterCategory":1,"la1":30.2991,"la2":30.254,"lo1":-89.0895,"lo2":-89.0444,"dy":0.0017,"dx":0.0017,"nx":28,"ny":28,"refTime":"2023-07-23T21:00:00:Z","depth":0,"parameterNumber":2,"parameterNumberName":"U-component_of_WINDS"},"data":[0,0,0,0,0,0,0,0,0,0,0,0,0,0,0,0,0,0,0,0,0,0,0,0,0,0,0,0,0,0,0,0,0,0,0,0,0,0,0,0,0,0,0,0,0,0,0,0,0,0,0,0,0,0,0,0,0,0,-0.4635,-0.4635,0,-0.4645,-0.4645,-0.4645,-0.4608,-0.4607,-0.4606,-0.4605,-0.4618,-0.4619,-0.4621,0,0,0,0,0,0,0,0,0,0,0,0,0,-0.4584,-0.4586,-0.4635,-0.4635,-0.4635,-0.4645,-0.4645,-0.4646,-0.4608,-0.4607,-0.4605,-0.4604,-0.4617,-0.4619,-0.4621,0,0,0,0,0,0,0,0,0,0,0,0,0,-0.4602,-0.4586,-0.4635,-0.4618,-0.4616,-0.4645,-0.4645,-0.4646,-0.4608,-0.4607,-0.4605,-0.4603,-0.4617,-0.4619,-0.4621,-0.4668,0,0,-0.4628,-0.4628,0,0,0,0,0,0,0,0,-0.4601,-0.4604,-0.462,-0.4619,-0.4617,-0.4623,-0.4632,-0.4653,-0.4609,-0.4611,-0.4605,-0.4603,-0.4621,-0.4623,-0.4629,-0.4669,-0.4669,-0.4628,-0.4629,-0.463,-0.463,0,0,0,0,0,0,0,-0.46,-0.4603,-0.4639,-0.462,-0.4619,-0.461,-0.461,-0.4636,-0.4626,-0.4611,-0.4608,-0.461,-0.462,-0.4627,-0.4629,-0.4669,-0.4628,-0.463,-0.4631,-0.4632,-0.4747,-0.4749,0,0,0,0,0,0,-0.46,-0.4602,-0.4639,-0.4639,-0.4605,-0.4612,-0.4613,-0.4623,-0.4625,-0.4624,-0.4611,-0.4608,-0.4624,-0.4626,-0.4629,-0.4684,-0.463,-0.4632,-0.4633,-0.4746,-0.4748,-0.475,0,0,0,0,0,0,-0.46,-0.4604,-0.4638,-0.462,-0.4624,-0.4615,-0.4627,-0.4624,-0.4631,-0.4626,-0.4624,-0.462,-0.4623,-0.4626,-0.4658,-0.4684,-0.4633,-0.4635,-0.4743,-0.4746,-0.4749,-0.4795,0,0,0,0,0,0,-0.4598,-0.4604,-0.4622,-0.4621,-0.4625,-0.4667,-0.4628,-0.4626,-0.4634,-0.463,-0.4633,-0.4632,-0.4622,-0.4655,-0.466,-0.4686,-0.4636,-0.4741,-0.4745,-0.4748,-0.4791,-0.4798,-0.4805,0,0,0,0,0,-0.4597,-0.4635,-0.4623,-0.4627,-0.4647,-0.4669,-0.4671,-0.4658,-0.4636,-0.4654,-0.4651,-0.4632,-0.468,-0.4659,-0.4664,-0.4691,-0.474,-0.4744,-0.4748,-0.4788,-0.4797,-0.4805,0,0,0,0,0,0,-0.4641,-0.4635,-0.4621,-0.466,-0.4665,-0.4662,-0.4685,-0.4668,-0.468,-0.4676,-0.4659,-0.466,-0.4696,-0.4696,-0.4673,-0.4736,-0.4706,-0.4711,-0.4735,-0.4744,-0.4751,-0.475,-0.4638,0,0,0,0,0,-0.4654,-0.4672,-0.4666,-0.4701,-0.4704,-0.4694,-0.4703,-0.4692,-0.4697,-0.4699,-0.4698,-0.4704,-0.472,-0.4732,-0.4747,-0.479,-0.479,-0.4811,-0.4818,-0.4824,-0.4829,-0.4852,-0.4861,-0.4763,-0.4763,-0.4763,0,0,-0.4684,-0.4683,-0.4696,-0.471,-0.4713,-0.4732,-0.4696,-0.4718,-0.4733,-0.4703,-0.4733,-0.4732,-0.4738,-0.4776,-0.4792,-0.4777,-0.4856,-0.4829,-0.4834,-0.4836,-0.4857,-0.4866,-0.4875,-0.4766,-0.4765,-0.4765,0,0,-0.4749,-0.4749,-0.4778,-0.4781,-0.4784,-0.4777,-0.4784,-0.4783,-0.4781,-0.481,-0.4788,-0.4805,-0.4834,-0.4838,-0.4845,-0.4908,-0.4891,-0.4913,-0.4952,-0.4974,-0.4981,-0.4988,-0.5011,-0.502,-0.4918,-0.4918,-0.4918,0,-0.4786,-0.4813,-0.4795,-0.4819,-0.4826,-0.4797,-0.4827,-0.4831,-0.484,-0.4845,-0.4828,-0.4862,-0.4864,-0.4902,-0.4918,-0.4923,-0.4931,-0.4914,-0.4982,-0.4988,-0.4994,-0.5016,-0.5025,-0.4921,-0.4921,-0.492,-0.492,0,-0.4858,-0.4877,-0.49,-0.4908,-0.4917,-0.4944,-0.4931,-0.4942,-0.4929,-0.4924,-0.4954,-0.4955,-0.4969,-0.4977,-0.4965,-0.5013,-0.5004,-0.4984,-0.4954,-0.5007,-0.5027,-0.5035,-0.4925,-0.4924,-0.4923,-0.4922,0,0,-0.4953,-0.4949,-0.4958,-0.496,-0.4961,-0.4976,-0.5001,-0.5013,-0.5023,-0.503,-0.505,-0.5074,-0.5055,-0.5062,-0.5051,-0.507,-0.5121,-0.5048,-0.5048,-0.5062,-0.5174,-0.5189,-0.5199,-0.5108,-0.511,-0.5111,-0.5173,0,-0.5017,-0.5058,-0.5042,-0.5085,-0.5102,-0.5074,-0.5096,-0.5099,-0.5094,-0.5108,-0.5102,-0.512,-0.5093,-0.5097,-0.5115,-0.5111,-0.5143,-0.5106,-0.5129,-0.513,-0.5129,-0.521,-0.5227,-0.5285,-0.5181,-0.5182,-0.5183,0,-0.5097,-0.5105,-0.5149,-0.5145,-0.5152,-0.5172,-0.5181,-0.5195,-0.5198,-0.5192,-0.5199,-0.5183,-0.5207,-0.5175,-0.5208,-0.5184,-0.5191,-0.519,-0.5192,-0.5195,-0.5161,-0.5216,-0.5304,-0.5313,-0.5196,-0.5195,-0.5194,0,-0.5162,-0.5184,-0.5213,-0.5216,-0.5213,-0.5227,-0.5226,-0.5227,-0.5235,-0.5243,-0.5248,-0.526,-0.5266,-0.5276,-0.5263,-0.5241,-0.5298,-0.5265,-0.5295,-0.5296,-0.531,-0.531,-0.5402,-0.5313,-0.5313,-0.5313,-0.5313,0,-0.5236,-0.5264,-0.5242,-0.5261,-0.5291,-0.5272,-0.5303,-0.5299,-0.53,-0.5317,-0.5293,-0.531,-0.5292,-0.5307,-0.5297,-0.5326,-0.5329,-0.5326,-0.5323,-0.5329,-0.5329,-0.5335,-0.5331,-0.5315,-0.5315,-0.5314,-0.5314,0,-0.5315,-0.5302,-0.5332,-0.5325,-0.5324,-0.5347,-0.5341,-0.5358,-0.535,-0.5372,-0.5376,-0.5364,-0.538,-0.5367,-0.5384,-0.5377,-0.5415,-0.5406,-0.5415,-0.5413,-0.5443,-0.5441,-0.5543,-0.5556,-0.5458,-0.5459,-0.546,0,-0.5364,-0.5385,-0.538,-0.5389,-0.5389,-0.5404,-0.5412,-0.5393,-0.5402,-0.5405,-0.5421,-0.5435,-0.5445,-0.5473,-0.5466,-0.5478,-0.547,-0.5505,-0.5472,-0.5476,-0.5471,-0.5471,-0.5473,-0.5512,-0.5513,-0.5514,-0.5515,0,-0.5452,-0.5443,-0.5455,-0.5463,-0.5472,-0.5479,-0.5483,-0.5492,-0.5473,-0.5484,-0.5499,-0.5507,-0.5522,-0.5537,-0.5546,-0.5546,-0.5528,-0.5525,-0.5533,-0.5539,-0.5543,-0.5542,-0.5434,-0.5523,-0.5522,-0.5522,-0.5521,-0.5521,-0.5518,-0.5535,-0.5534,-0.5547,-0.5547,-0.5551,-0.5566,-0.5559,-0.5571,-0.5582,-0.557,-0.5589,-0.5589,-0.56,-0.5601,-0.5616,-0.5602,-0.5613,-0.5616,-0.5619,-0.5624,-0.554,-0.5618,-0.5618,-0.5617,-0.5617,-0.5617,0,-0.5606,-0.5602,-0.5614,-0.562,-0.563,-0.561,-0.5613,-0.5623,-0.564,-0.5641,-0.5651,-0.5668,-0.5682,-0.5675,-0.5686,-0.5699,-0.5691,-0.5703,-0.5703,-0.5703,-0.5636,-0.5628,-0.5709,-0.5709,-0.5709,-0.5709,-0.5709,-0.5709,-0.5652,-0.568,-0.5671,-0.5698,-0.5695,-0.5712,-0.5716,-0.572,-0.572,-0.5741,-0.5751,-0.5745,-0.5744,-0.5754,-0.5765,-0.5763,-0.5769,-0.5784,-0.5779,-0.5717,-0.5708,-0.5699,-0.5692,-0.5785,-0.5785,-0.5845,-0.5845,-0.5846]},{"header":{"parameterUnit":"m.s-1","parameterCategory":1,"la1":30.2991,"la2":30.254,"lo1":-89.0895,"lo2":-89.0444,"dy":0.0017,"dx":0.0017,"nx":28,"ny":28,"refTime":"2023-07-23T21:00:00:Z","depth":0,"parameterNumber":3,"parameterNumberName":"V-component_of_WINDS"},"data":[0,0,0,0,0,0,0,0,0,0,0,0,0,0,0,0,0,0,0,0,0,0,0,0,0,0,0,0,0,0,0,0,0,0,0,0,0,0,0,0,0,0,0,0,0,0,0,0,0,0,0,0,0,0,0,0,0,0,-2.6535,-2.6536,0,-2.6593,-2.6594,-2.6594,-2.655,-2.6548,-2.6546,-2.6544,-2.6601,-2.6604,-2.6607,0,0,0,0,0,0,0,0,0,0,0,0,0,-2.6383,-2.6386,-2.6535,-2.6536,-2.6536,-2.6593,-2.6594,-2.6594,-2.655,-2.6548,-2.6545,-2.6543,-2.66,-2.6603,-2.6607,0,0,0,0,0,0,0,0,0,0,0,0,0,-2.6446,-2.6387,-2.6535,-2.6521,-2.652,-2.6593,-2.6594,-2.6595,-2.655,-2.6548,-2.6545,-2.6542,-2.6598,-2.6603,-2.6608,-2.6696,0,0,-2.6623,-2.6625,0,0,0,0,0,0,0,0,-2.6442,-2.6452,-2.6522,-2.6522,-2.6522,-2.6561,-2.6561,-2.6629,-2.6551,-2.6539,-2.6544,-2.6541,-2.659,-2.6595,-2.6612,-2.6699,-2.6701,-2.6623,-2.6626,-2.6629,-2.663,0,0,0,0,0,0,0,-2.6438,-2.6449,-2.6558,-2.6523,-2.6523,-2.6511,-2.6517,-2.6574,-2.658,-2.654,-2.6537,-2.6544,-2.6589,-2.6608,-2.6613,-2.6702,-2.6623,-2.6628,-2.6631,-2.6633,-2.6864,-2.6867,0,0,0,0,0,0,-2.6436,-2.6445,-2.6556,-2.656,-2.6474,-2.6516,-2.6523,-2.6551,-2.6579,-2.658,-2.6547,-2.6542,-2.6601,-2.6607,-2.6615,-2.672,-2.6629,-2.6633,-2.6636,-2.686,-2.6864,-2.6868,0,0,0,0,0,0,-2.6432,-2.6446,-2.6554,-2.6502,-2.6515,-2.6522,-2.6554,-2.6554,-2.6573,-2.6584,-2.6585,-2.6565,-2.6599,-2.6608,-2.6676,-2.6722,-2.6635,-2.664,-2.6857,-2.6862,-2.6866,-2.6931,0,0,0,0,0,0,-2.6428,-2.6445,-2.6479,-2.6503,-2.6518,-2.6615,-2.6557,-2.6557,-2.6582,-2.6576,-2.6601,-2.6603,-2.6597,-2.6669,-2.6681,-2.6727,-2.6644,-2.6853,-2.6859,-2.6864,-2.6925,-2.6938,-2.6948,0,0,0,0,0,-2.6423,-2.6495,-2.6481,-2.6495,-2.6561,-2.6618,-2.6626,-2.6619,-2.6586,-2.662,-2.6627,-2.6602,-2.6715,-2.6677,-2.669,-2.6737,-2.685,-2.6857,-2.6864,-2.692,-2.6935,-2.6948,0,0,0,0,0,0,-2.6475,-2.6497,-2.6483,-2.6564,-2.659,-2.661,-2.6653,-2.6635,-2.667,-2.6663,-2.6651,-2.6657,-2.6729,-2.674,-2.6697,-2.6824,-2.6777,-2.6787,-2.6815,-2.6829,-2.6841,-2.6837,-2.6648,0,0,0,0,0,-2.6496,-2.6541,-2.6558,-2.6628,-2.6642,-2.6646,-2.667,-2.6662,-2.6688,-2.6698,-2.671,-2.6735,-2.6776,-2.6803,-2.6841,-2.6926,-2.6931,-2.6966,-2.6977,-2.6987,-2.6996,-2.7041,-2.7057,-2.6891,-2.6891,-2.6891,0,0,-2.654,-2.6558,-2.6587,-2.6639,-2.6658,-2.6705,-2.6655,-2.6706,-2.674,-2.6705,-2.6771,-2.6781,-2.6808,-2.6885,-2.692,-2.6896,-2.7042,-2.6996,-2.7003,-2.7007,-2.705,-2.7066,-2.708,-2.6896,-2.6895,-2.6894,0,0,-2.6643,-2.6661,-2.6722,-2.6742,-2.6772,-2.6773,-2.6788,-2.6812,-2.6817,-2.6883,-2.6858,-2.6898,-2.6969,-2.6989,-2.7009,-2.7121,-2.7099,-2.7133,-2.7194,-2.7239,-2.7252,-2.7264,-2.7304,-2.7318,-2.7142,-2.7142,-2.7142,0,-2.6694,-2.6764,-2.6755,-2.6809,-2.6833,-2.6804,-2.6865,-2.6885,-2.6925,-2.6942,-2.6915,-2.7004,-2.702,-2.7101,-2.7129,-2.7146,-2.7162,-2.7131,-2.7251,-2.7263,-2.7273,-2.7311,-2.7326,-2.7146,-2.7146,-2.7145,-2.7145,0,-2.6824,-2.6874,-2.6919,-2.696,-2.6988,-2.7045,-2.7045,-2.7075,-2.7065,-2.7069,-2.7137,-2.7155,-2.7197,-2.7215,-2.7205,-2.7296,-2.728,-2.7253,-2.7205,-2.7293,-2.7329,-2.7343,-2.7152,-2.7151,-2.7149,-2.7148,0,0,-2.6962,-2.6998,-2.7015,-2.7033,-2.7064,-2.7101,-2.7156,-2.7198,-2.7224,-2.7253,-2.7299,-2.736,-2.7334,-2.7357,-2.7349,-2.7388,-2.7476,-2.7355,-2.7356,-2.7377,-2.7577,-2.7598,-2.7615,-2.7462,-2.7464,-2.7466,-2.7574,0,-2.7068,-2.7166,-2.716,-2.7252,-2.7297,-2.727,-2.7319,-2.7342,-2.7348,-2.7386,-2.7392,-2.7435,-2.7399,-2.7412,-2.745,-2.7457,-2.7516,-2.7449,-2.7504,-2.7506,-2.7498,-2.7633,-2.7655,-2.7756,-2.7588,-2.7591,-2.7592,0,-2.7204,-2.7238,-2.7335,-2.7359,-2.7378,-2.7421,-2.7459,-2.7497,-2.7522,-2.7524,-2.7549,-2.7535,-2.759,-2.7541,-2.7617,-2.7572,-2.7594,-2.7601,-2.7605,-2.761,-2.7555,-2.7642,-2.7788,-2.7804,-2.7614,-2.7612,-2.7611,0,-2.7295,-2.7365,-2.7432,-2.7449,-2.7478,-2.751,-2.7523,-2.7547,-2.7572,-2.7605,-2.7621,-2.766,-2.7681,-2.7711,-2.7707,-2.7671,-2.7784,-2.7735,-2.7787,-2.7787,-2.7812,-2.781,-2.7964,-2.7826,-2.7825,-2.7825,-2.7825,0,-2.7413,-2.7474,-2.7474,-2.7515,-2.7582,-2.7574,-2.764,-2.765,-2.7671,-2.7713,-2.7692,-2.7732,-2.7724,-2.7764,-2.7761,-2.7824,-2.7834,-2.7836,-2.7835,-2.7838,-2.7838,-2.7853,-2.7846,-2.7829,-2.7828,-2.7827,-2.7827,0,-2.7527,-2.7529,-2.7601,-2.7623,-2.763,-2.7678,-2.7697,-2.7736,-2.774,-2.7794,-2.7806,-2.7812,-2.7857,-2.7857,-2.7908,-2.7906,-2.7984,-2.7974,-2.7976,-2.7974,-2.8026,-2.8021,-2.8195,-2.8217,-2.8064,-2.8065,-2.8067,0,-2.7602,-2.7648,-2.7676,-2.7703,-2.7719,-2.7763,-2.779,-2.7784,-2.7812,-2.7845,-2.788,-2.7924,-2.7958,-2.8032,-2.8041,-2.808,-2.8071,-2.8129,-2.8077,-2.8079,-2.8072,-2.807,-2.8074,-2.814,-2.8141,-2.8143,-2.8144,0,-2.7736,-2.7735,-2.7775,-2.7815,-2.7847,-2.7878,-2.7906,-2.793,-2.7927,-2.7959,-2.8006,-2.8033,-2.8087,-2.813,-2.8168,-2.8181,-2.8162,-2.816,-2.8174,-2.8179,-2.8178,-2.8179,-2.8004,-2.8156,-2.8155,-2.8154,-2.8153,-2.8153,-2.7833,-2.7873,-2.7899,-2.7943,-2.7964,-2.7992,-2.8029,-2.8038,-2.8078,-2.8121,-2.8115,-2.8168,-2.8192,-2.8241,-2.8258,-2.8298,-2.8277,-2.8298,-2.8303,-2.8308,-2.8314,-2.8171,-2.8305,-2.8304,-2.8304,-2.8304,-2.8304,0,-2.7966,-2.7982,-2.8023,-2.8064,-2.8099,-2.8079,-2.8109,-2.814,-2.8187,-2.8211,-2.8246,-2.83,-2.8343,-2.8355,-2.8396,-2.8426,-2.8418,-2.8436,-2.8434,-2.8438,-2.833,-2.8314,-2.8442,-2.8442,-2.8442,-2.8442,-2.8442,-2.8442,-2.804,-2.8106,-2.8108,-2.8185,-2.8199,-2.8251,-2.8271,-2.8295,-2.8315,-2.8377,-2.8413,-2.842,-2.844,-2.8482,-2.852,-2.8522,-2.8538,-2.8561,-2.856,-2.8459,-2.8445,-2.8432,-2.8417,-2.8564,-2.8564,-2.8663,-2.8664,-2.8665]}]]